{"data":{"norad_id":59476,"epoch":"2026-09-21T07:55:14.525472Z","epoch_age_seconds":93380,"freshness":"FRESH","line1":"1 59476U 24068X   26264.33002923 -.00001034  00000+0 -28065-4 0  9997","line2":"2 59476  43.0037   9.6180 0001007 275.4463  84.6273 15.27577061138444","mean_motion":15.27577061,"eccentricity":0.0001007,"inclination_deg":43.0037,"raan_deg":9.618,"arg_perigee_deg":275.4463,"mean_anomaly_deg":84.6273,"bstar":-2.8065e-5,"rev_number":13844,"period_min":94.266930079281,"perigee_km":482.36697415099,"apogee_km":483.74881880314,"semimajor_km":6861.1948964771,"source":"CELESTRAK","updated_at":"2026-09-22T09:00:48.951584Z"}}